• In France
  • List of Countries
  • For 7 days
  • Water Temperature
  • Satellite Maps
  • Weather Map
  • Weather Widgets
  • user-avatar
    Login

    Hourly Weather Midlothian

    Today, 22 July, Sunday

    Time Temperature Precipitation Wind Pressure Humidity
    00:00 +13°C° 0.1 mm 5 mps 736 mmHg 93%
    01:00 +13°C° 0 mm 5 mps 736 mmHg 93%
    02:00 +13°C° 0 mm 5 mps 736 mmHg 94%
    03:00 +14°C° 0 mm 5 mps 736 mmHg 94%
    04:00 +14°C° 0 mm 5 mps 736 mmHg 94%
    05:00 +15°C° 0 mm 5 mps 736 mmHg 93%
    06:00 +15°C° 0 mm 5 mps 736 mmHg 93%
    07:00 +16°C° 0 mm 5 mps 736 mmHg 90%
    08:00 +17°C° 0 mm 6 mps 736 mmHg 87%
    09:00 +19°C° 0 mm 6 mps 736 mmHg 85%
    10:00 +20°C° 0 mm 6 mps 737 mmHg 81%
    11:00 +21°C° 0 mm 6 mps 737 mmHg 78%
    12:00 +22°C° 0 mm 6 mps 737 mmHg 75%
    13:00 +22°C° 0 mm 6 mps 737 mmHg 75%
    14:00 +22°C° 0 mm 6 mps 737 mmHg 75%
    15:00 +22°C° 0 mm 6 mps 737 mmHg 74%
    16:00 +22°C° 0 mm 6 mps 737 mmHg 77%
    17:00 +21°C° 0 mm 5 mps 737 mmHg 79%
    18:00 +20°C° 0 mm 5 mps 737 mmHg 81%
    19:00 +19°C° 0 mm 5 mps 737 mmHg 85%
    20:00 +18°C° 0 mm 4 mps 737 mmHg 89%
    21:00 +17°C° 0 mm 4 mps 737 mmHg 93%
    22:00 +17°C° 0 mm 3 mps 737 mmHg 94%
    23:00 +16°C° 0 mm 3 mps 737 mmHg 96%

    Tomorrow, 23 July, Monday

    Time Temperature Precipitation Wind Pressure Humidity
    00:00 +16°C° 0 mm 3 mps 737 mmHg 97%
    01:00 +16°C° 0 mm 3 mps 737 mmHg 97%
    02:00 +16°C° 0 mm 3 mps 737 mmHg 97%
    03:00 +16°C° 0 mm 3 mps 736 mmHg 97%
    04:00 +16°C° 0 mm 3 mps 736 mmHg 96%
    05:00 +17°C° 0 mm 4 mps 736 mmHg 94%
    06:00 +17°C° 0 mm 4 mps 736 mmHg 93%
    07:00 +17°C° 0 mm 5 mps 736 mmHg 90%
    08:00 +19°C° 0 mm 5 mps 736 mmHg 87%
    09:00 +20°C° 0 mm 5 mps 736 mmHg 84%
    10:00 +20°C° 0.1 mm 6 mps 736 mmHg 81%
    11:00 +21°C° 0.1 mm 6 mps 736 mmHg 78%
    12:00 +21°C° 0.1 mm 6 mps 736 mmHg 76%
    13:00 +21°C° 0.1 mm 6 mps 736 mmHg 77%
    14:00 +21°C° 0.1 mm 5 mps 736 mmHg 78%
    15:00 +20°C° 0.1 mm 5 mps 736 mmHg 80%
    16:00 +20°C° 0.2 mm 5 mps 736 mmHg 82%
    17:00 +19°C° 0.2 mm 4 mps 735 mmHg 85%
    18:00 +19°C° 0.2 mm 3 mps 735 mmHg 87%
    19:00 +18°C° 0.3 mm 3 mps 735 mmHg 90%
    20:00 +17°C° 0.3 mm 3 mps 736 mmHg 92%
    21:00 +16°C° 0.3 mm 2 mps 736 mmHg 95%
    22:00 +16°C° 0.3 mm 3 mps 735 mmHg 95%
    23:00 +14°C° 0.3 mm 3 mps 735 mmHg 95%

    Day after tomorrow, 24 July, Tuesday

    Time Temperature Precipitation Wind Pressure Humidity
    00:00 +14°C° 0.3 mm 3 mps 735 mmHg 95%
    01:00 +13°C° 0.1 mm 3 mps 735 mmHg 95%
    02:00 +13°C° 0.1 mm 3 mps 735 mmHg 95%
    03:00 +12°C° 0.1 mm 3 mps 735 mmHg 95%
    04:00 +12°C° 0 mm 3 mps 735 mmHg 94%
    05:00 +12°C° 0 mm 3 mps 735 mmHg 93%
    06:00 +12°C° 0 mm 3 mps 735 mmHg 92%
    07:00 +13°C° 0 mm 3 mps 736 mmHg 87%
    08:00 +14°C° 0 mm 3 mps 736 mmHg 82%
    09:00 +16°C° 0 mm 3 mps 736 mmHg 77%
    10:00 +17°C° 0 mm 3 mps 736 mmHg 74%
    11:00 +17°C° 0 mm 3 mps 737 mmHg 71%
    12:00 +18°C° 0 mm 3 mps 737 mmHg 67%
    13:00 +18°C° 0 mm 3 mps 737 mmHg 65%
    14:00 +18°C° 0 mm 3 mps 737 mmHg 63%
    15:00 +19°C° 0 mm 3 mps 737 mmHg 61%
    16:00 +18°C° 0 mm 3 mps 737 mmHg 63%
    17:00 +18°C° 0 mm 3 mps 737 mmHg 65%
    18:00 +17°C° 0 mm 3 mps 737 mmHg 67%
    19:00 +16°C° 0 mm 3 mps 738 mmHg 73%
    20:00 +13°C° 0 mm 3 mps 738 mmHg 79%
    21:00 +12°C° 0 mm 2 mps 738 mmHg 85%
    22:00 +10°C° 0 mm 2 mps 738 mmHg 86%
    23:00 +9°C° 0 mm 2 mps 738 mmHg 87%

    25 July, Wednesday

    Time Temperature Precipitation Wind Pressure Humidity
    00:00 +9°C° 0 mm 2 mps 739 mmHg 88%
    01:00 +9°C° 0 mm 2 mps 739 mmHg 88%
    02:00 +10°C° 0 mm 1 mps 739 mmHg 87%
    03:00 +10°C° 0 mm 1 mps 739 mmHg 87%
    04:00 +11°C° 0 mm 1 mps 739 mmHg 85%
    05:00 +11°C° 0 mm 1 mps 739 mmHg 84%
    06:00 +12°C° 0 mm 1 mps 739 mmHg 83%
    07:00 +14°C° 0 mm 1 mps 739 mmHg 77%
    08:00 +15°C° 0 mm 1 mps 739 mmHg 70%
    09:00 +18°C° 0 mm 1 mps 739 mmHg 64%
    10:00 +18°C° 0 mm 2 mps 739 mmHg 62%
    11:00 +19°C° 0 mm 2 mps 739 mmHg 60%
    12:00 +19°C° 0 mm 3 mps 739 mmHg 58%
    13:00 +20°C° 0 mm 4 mps 739 mmHg 59%
    14:00 +20°C° 0 mm 4 mps 738 mmHg 60%
    15:00 +20°C° 0 mm 4 mps 738 mmHg 60%
    16:00 +20°C° 0 mm 5 mps 738 mmHg 65%
    17:00 +20°C° 0 mm 5 mps 737 mmHg 69%
    18:00 +19°C° 0 mm 5 mps 737 mmHg 73%
    19:00 +18°C° 0 mm 4 mps 737 mmHg 79%
    20:00 +17°C° 0 mm 4 mps 737 mmHg 85%
    21:00 +14°C° 0 mm 4 mps 736 mmHg 91%
    22:00 +14°C° 0 mm 4 mps 736 mmHg 92%
    23:00 +14°C° 0 mm 3 mps 736 mmHg 93%

    26 July, Thursday

    Time Temperature Precipitation Wind Pressure Humidity
    00:00 +13°C° 0 mm 3 mps 736 mmHg 93%
    01:00 +13°C° 0 mm 3 mps 736 mmHg 94%
    02:00 +12°C° 0 mm 3 mps 736 mmHg 94%
    03:00 +12°C° 0 mm 3 mps 736 mmHg 94%
    04:00 +12°C° 0 mm 3 mps 736 mmHg 93%
    05:00 +12°C° 0 mm 3 mps 737 mmHg 93%
    06:00 +13°C° 0 mm 3 mps 737 mmHg 92%
    07:00 +14°C° 0 mm 3 mps 737 mmHg 89%
    08:00 +16°C° 0 mm 3 mps 738 mmHg 85%
    09:00 +18°C° 0 mm 3 mps 738 mmHg 82%
    10:00 +19°C° 0 mm 3 mps 739 mmHg 78%
    11:00 +20°C° 0 mm 2 mps 739 mmHg 74%
    12:00 +21°C° 0 mm 2 mps 739 mmHg 71%
    13:00 +21°C° 0.1 mm 2 mps 739 mmHg 71%
    14:00 +21°C° 0.1 mm 3 mps 739 mmHg 71%
    15:00 +21°C° 0.1 mm 3 mps 739 mmHg 71%
    16:00 +21°C° 0.1 mm 3 mps 739 mmHg 73%
    17:00 +21°C° 0.1 mm 3 mps 739 mmHg 75%
    18:00 +20°C° 0.1 mm 3 mps 739 mmHg 77%
    19:00 +19°C° 0 mm 3 mps 739 mmHg 82%
    20:00 +17°C° 0 mm 3 mps 739 mmHg 87%
    21:00 +15°C° 0 mm 2 mps 739 mmHg 92%
    22:00 +15°C° 0 mm 2 mps 739 mmHg 92%
    23:00 +15°C° 0 mm 2 mps 739 mmHg 93%

    27 July, Friday

    Time Temperature Precipitation Wind Pressure Humidity
    00:00 +14°C° 0 mm 2 mps 739 mmHg 94%
    01:00 +14°C° 0 mm 2 mps 739 mmHg 94%
    02:00 +14°C° 0 mm 2 mps 739 mmHg 94%
    03:00 +14°C° 0 mm 2 mps 739 mmHg 95%
    04:00 +14°C° 0 mm 2 mps 739 mmHg 94%
    05:00 +15°C° 0 mm 2 mps 739 mmHg 93%
    06:00 +16°C° 0 mm 2 mps 739 mmHg 92%
    07:00 +17°C° 0 mm 2 mps 739 mmHg 86%
    08:00 +19°C° 0 mm 2 mps 739 mmHg 80%
    09:00 +21°C° 0 mm 2 mps 739 mmHg 73%
    10:00 +21°C° 0.1 mm 2 mps 739 mmHg 71%
    11:00 +22°C° 0.1 mm 3 mps 739 mmHg 68%
    12:00 +24°C° 0.1 mm 3 mps 738 mmHg 66%
    13:00 +24°C° 0.5 mm 3 mps 738 mmHg 65%
    14:00 +24°C° 0.5 mm 3 mps 738 mmHg 65%
    15:00 +24°C° 0.5 mm 3 mps 738 mmHg 64%
    16:00 +24°C° 0.3 mm 3 mps 738 mmHg 66%
    17:00 +24°C° 0.3 mm 3 mps 738 mmHg 67%
    18:00 +23°C° 0.3 mm 2 mps 738 mmHg 69%
    19:00 +21°C° 0 mm 2 mps 738 mmHg 73%
    20:00 +19°C° 0 mm 2 mps 738 mmHg 78%
    21:00 +17°C° 0 mm 2 mps 738 mmHg 83%
    22:00 +16°C° 0 mm 1 mps 737 mmHg 84%
    23:00 +16°C° 0 mm 1 mps 737 mmHg 85%
    Show more